Regional Weather Roundup
Issued by NWS

Home | Current Version | Previous Version | Graphics & Text | Print | Product List | Glossary On
Versions: 1 2 3 4 5 6 7 8 9 10 11 12 13 14 15 16 17 18 19 20 21 22 23 24 25 26 27 28 29 30 31 32 33 34 35 36 37 38 39 40 41 42 43 44 45 46 47 48 49 50
000
ASUS43 KIND 282159
RWRIN

WEATHER ROUNDUP FOR INDIANA
NATIONAL WEATHER SERVICE INDIANAPOLIS IN
600 PM EDT TUE JUL 28 2015

NOTE: "FAIR" INDICATES FEW OR NO CLOUDS BELOW 12,000 FEET WITH NO
SIGNIFICANT WEATHER AND/OR OBSTRUCTIONS TO VISIBILITY.

* - STATION DOES NOT REPORT WEATHER SUCH AS PRECIPITATION OR FOG.

+ - STATION NOT QUALITY CONTROLLED BY THE NATIONAL WEATHER SERVICE.
    USE DATA WITH CAUTION...ESPECIALLY DEWPOINT AND RELATIVE
    HUMIDITY OBSERVATIONS.

INZ001>003-010>013-019-020-282300-
NORTHWEST INDIANA

CITY           SKY/WX    TMP DP  RH WIND       PRES   REMARKS
KNOX *+        MOSUNNY   88  70  55 SE5       29.93F
MONTICELLO +   MOSUNNY   88  73  59 S3        29.93F HX  96
RENSSELAER +   SUNNY     88  70  55 CALM      29.91F

$$

LMZ046-743>745-282300-
SOUTHERN LAKE MICHIGAN

STATION/POSITION TIME  TEMP    WIND        PRES    WAVE
                       AIR SEA DIR/SP/G            HT
                 (UTC) (F)     (DEG/KT/KT) (MB)    (FT)
BURNS HARBOR     2140   88     110/ 11/ 20 1012.5F
MICHIGAN CITY    2100   81      20/  9/  9   N/A
5NW MICH CITY    2100   79 78   50/  8/  8   N/A     0

$$

INZ004-005-014>016-021>024-282300-
NORTH CENTRAL INDIANA

CITY           SKY/WX    TMP DP  RH WIND       PRES   REMARKS
ELKHART        SUNNY     88  66  48 S5        29.96F
GOSHEN         SUNNY     88  69  53 S6        29.96F
SOUTH BEND     MOSUNNY   88  69  53 S8        29.94F
WARSAW +       MOSUNNY   84  72  65 E5        29.96F

$$

INZ006>009-017-018-025>027-282300-
NORTHEAST INDIANA

CITY           SKY/WX    TMP DP  RH WIND       PRES   REMARKS
ANGOLA *+      SUNNY     90  66  45 SE5       29.98F
FORT WAYNE     PTSUNNY   88  69  53 E7        29.97F

$$

INZ028-029-035-036-043>045-051>053-282300-
WEST CENTRAL INDIANA

CITY           SKY/WX    TMP DP  RH WIND       PRES   REMARKS
CRAWFORDSVL +  MOSUNNY   86  69  55 CALM        N/A
GREENCASTLE +  SUNNY     88  68  51 N6        29.96F
LAFAYETTE      MOSUNNY   89  71  55 CALM      29.91F HX  95
TERRE HAUTE    SUNNY     92  74  55 N3        29.94F HX 101

$$

INZ030>032-037>040-046>048-054>057-064-065-282300-
CENTRAL INDIANA

CITY           SKY/WX    TMP DP  RH WIND       PRES   REMARKS
COLUMBUS       SUNNY     90  64  43 CALM      29.94F
GREENWOOD *+   MOSUNNY   84  70  61 E8        29.97S
INDIANAPOLIS   PTSUNNY   88  71  57 W8        29.95S
-EAGLE CREEK   MOSUNNY   88  74  63 W7        29.95S HX  96
KOKOMO *+      MOSUNNY   90  72  55 CALM      29.95F HX  96
MT COMFORT *+  MOSUNNY   82  79  89 SE5       29.97F
SHELBYVILLE    MOSUNNY   85  76  74 NE5       29.96F

$$

INZ033-034-041-042-049-050-058-059-282300-
EAST CENTRAL INDIANA

CITY           SKY/WX    TMP DP  RH WIND       PRES   REMARKS
MUNCIE         MOSUNNY   85  70  60 E5        29.97S

$$

INZ060-061-067>069-081>083-085>088-282300-
SOUTHWEST INDIANA

CITY           SKY/WX    TMP DP  RH WIND       PRES   REMARKS
EVANSVILLE     MOSUNNY   93  75  55 VRB5      29.92F HX 104
HUNTINGBURG *+ SUNNY     90  77  66 SW3       29.93F HX 102

$$

INZ062-063-066-070>080-084-089>092-282300-
SOUTH CENTRAL AND SOUTHEAST INDIANA

CITY           SKY/WX    TMP DP  RH WIND       PRES   REMARKS
BLOOMINGTON    MOSUNNY   91  74  57 CALM      29.95F HX 100
MADISON *+     SUNNY     90  68  48 W5        29.97S
SEYMOUR +      MOSUNNY   91  75  59 E7        29.94S HX 102

$$




USA.gov is the U.S. government's official web portal to all federal, state and local government web resources and services.